Regional Weather Roundup
Issued by NWS

Home | Current Version | Previous Version | Text Only | Print | Product List | Glossary On
Versions: 1 2 3 4 5 6 7 8 9 10 11 12 13 14 15 16 17 18 19 20 21 22 23 24 25 26 27 28 29 30 31 32 33 34 35 36 37 38 39 40 41 42 43 44 45 46 47 48 49 50
000
ASUS43 KLSX 041057
RWRMO

WEATHER SUMMARY FOR MISSOURI
NATIONAL WEATHER SERVICE SPRINGFIELD MO
600 AM CDT FRI SEP 04 2015

NOTE: "FAIR" INDICATES FEW OR NO CLOUDS BELOW 12,000 FEET WITH NO
       SIGNIFICANT WEATHER AND/OR OBSTRUCTIONS TO VISIBILITY.
       CURRENT SKY AND/OR WEATHER CONDITIONS ARE NOT AVAILABLE FOR
       CHILLICOTHE AND FARMINGTON.

MOZ001>031-035>038-043-044-053-054-041200-
...NORTHERN AND WESTERN MISSOURI...

CITY           SKY/WX    TMP DP  RH WIND       PRES   REMARKS
KANSAS CTY INT PTCLDY    72  67  84 S9        29.93S
LEE`S SUMMIT   PTCLDY    73  67  81 S6        29.95S
ST JOSEPH      PTCLDY    71  67  87 S5        29.92S

$$
MOZ066>068-077>081-088>096-101>105-041200-
...SOUTHWEST MISSOURI...

CITY           SKY/WX    TMP DP  RH WIND       PRES   REMARKS
SPRINGFIELD    PTCLDY    72  67  84 SE9       30.00R
JOPLIN         PTCLDY    72  66  81 S8        29.97R

$$
MOZ032>034-039>042-045>050-055>058-069>072-041200-
...CENTRAL MISSOURI...

CITY           SKY/WX    TMP DP  RH WIND       PRES   REMARKS
COLUMBIA       NOT AVBL
JEFFERSON CITY PTCLDY    69  67  93 SE3       29.97S
ROLLA          PTCLDY    70  66  87 S8        29.99S
SEDALIA        PTCLDY    71  67  87 S8        29.98R

$$
MOZ051-052-059>065-041200-
...EAST CENTRAL MISSOURI...

CITY           SKY/WX    TMP DP  RH WIND       PRES   REMARKS
ST LOUIS INTL  PTCLDY    77  68  73 CALM      30.00R
ST CHARLES     PTCLDY    69  69 100 CALM      29.98R FOG

$$
MOZ072>076-082>087-097>100-106>115-041200-
...SOUTH CENTRAL AND SOUTHEAST MISSOURI...

CITY           SKY/WX    TMP DP  RH WIND       PRES   REMARKS
CAPE GIRARDEAU CLEAR     66  65  96 CALM      29.99R FOG
POPLAR BLUFF   CLEAR     67  66  97 CALM      29.98R
WEST PLAINS    CLEAR     68  65  90 CALM      30.03S

$$


USA.gov is the U.S. government's official web portal to all federal, state and local government web resources and services.